Location: Lima
(44.6384°N, 112.5920°W)
Time: 17:56:30
(UTC+00:00)

CAS-4A - Pass Details

Date: 22 April 2024
Orbit: 474 x 491 km, 43.0° (Epoch: 28 May)

Event Time Altitude Azimuth Distance (km) Brightness Sun altitude
Exits shadow 09:56:46 30° 109° (ESE) 882 ? -23.8°
Drops below altitude 10° 09:58:59 10° 89° (E) 1,664 ? -23.6°
Enters shadow 10:57:09 -67° 267° (W) 12,225 ? -16.0°
Maximum altitude 11:34:10 70° 182° (S) 518 ? -10.5°
